カタログに戻る

EXPRESS 80

運用中通信GEO
NORAD 45986·PAYLOAD·🇷🇺 Russia

打ち上げ Jul 30, 2020 から Baikonur Cosmodrome

Loading…

TLE

最新Source: Space-Track

元期: Sep 14, 2026, 14:10 UTC

1 45986U 20053B   26257.59096108  .00000000  00000-0  00000-0 0  9992
2 45986   0.0175 173.1544 0001926 234.4895 238.6510  1.00270223 22539

AllMySatでEXPRESS 80をリアルタイム追跡

Download on the App Store